Fairbanks Ft. Wainwright, AK

2:56 AM AKDT on September 21, 2017 (GMT -0800)
Ladd Army Air Field

Weather History for PAFB - June, 2013

Change the Weather History Date:

Thursday, June 6, 2013

  Actual Average Record
Temperature  
Mean Temperature 53 °F -  
Max Temperature 62 °F 66 °F 82 °F (1997)
Min Temperature 44 °F 49 °F 37 °F (2006)
Degree Days  
Heating Degree Days 12    
Growing Degree Days 3 (Base 50)    
Moisture  
Dew Point 44 °F    
Average Humidity 71    
Maximum Humidity 97    
Minimum Humidity 42    
Precipitation  
Precipitation 0.00 in - - ()
Sea Level Pressure  
Sea Level Pressure 29.85 in    
Wind  
Wind Speed 3 mph (ESE)    
Max Wind Speed 15 mph    
Max Gust Speed 21 mph    
Visibility 8 miles    
Events Rain    
Averages and records for this station are not official NWS values.
T = Trace of Precipitation, MM = Missing Value Source: NWS Daily Summary

Daily Weather History Graph

Daily Weather History Graph

Search for Another Location

Airport or City:

Trip Planner

Search our weather history database for the weather conditions in past years. The results will help you decide how hot, cold, wet, or windy it might be!

Date:

Astronomy

Jun. 06, 2013 Rise Set
Actual Time 3:17 AM AKDT 12:23 AM AKDT
Civil Twilight Sun does not set Sun does not set
Nautical Twilight Sun does not set Sun does not set
Astronomical Twilight Sun does not set Sun does not set
Moon 3:17 AM AKDT (6/6) 9:53 PM AKDT (6/6)
Length of Visible Light 24h 00m
Length of Day
21h 06m
Waning Crescent, 3% of the Moon is Illuminated
Jun 6
Waning Crescent
Jun 8
New
Jun 16
First Quarter
Jun 23
Full
Jun 29
Last Quarter

Hourly Weather History & Observations

Time (AKDT) Temp. Windchill Dew Point Humidity Pressure Visibility Wind Dir Wind Speed Gust Speed Precip Events Conditions
12:56 AM 48.9 °F - 46.0 °F 90% 29.88 in 10.0 mi SE 3.5 mph - N/A   Mostly Cloudy
1:56 AM 46.9 °F - 46.0 °F 97% 29.88 in 10.0 mi Calm Calm - N/A   Partly Cloudy
2:16 AM 44.6 °F 43.1 °F 42.8 °F 93% 29.87 in 1.8 mi SE 3.5 mph - N/A   Scattered Clouds
2:26 AM 44.6 °F 43.1 °F 42.8 °F 93% 29.87 in 4.0 mi East 3.5 mph - N/A   Mostly Cloudy
2:56 AM 46.0 °F - 45.0 °F 96% 29.89 in 10.0 mi Calm Calm - N/A   Overcast
3:56 AM 46.0 °F - 44.1 °F 93% 29.89 in 10.0 mi Calm Calm - N/A   Overcast
4:56 AM 46.9 °F - 44.1 °F 90% 29.89 in 10.0 mi East 3.5 mph - N/A   Overcast
5:56 AM 46.9 °F - 44.1 °F 90% 29.89 in 10.0 mi East 4.6 mph - 0.00 in   Overcast
6:24 AM 46.4 °F 45.2 °F 44.6 °F 93% 29.88 in 85.0 mi ESE 3.5 mph - N/A   Mostly Cloudy
6:55 AM 48.2 °F - 44.6 °F 87% 29.89 in 85.0 mi East 3.5 mph - N/A   Mostly Cloudy
7:55 AM 48.2 °F - 46.4 °F 93% 29.89 in 85.0 mi Calm Calm - N/A   Mostly Cloudy
8:55 AM 50.0 °F - 44.6 °F 82% 29.89 in 85.0 mi ENE 3.5 mph - N/A   Mostly Cloudy
9:55 AM 53.6 °F - 46.4 °F 77% 29.89 in 85.0 mi East 3.5 mph - N/A   Mostly Cloudy
10:55 AM 55.4 °F - 46.4 °F 72% 29.88 in 85.0 mi Variable 4.6 mph - N/A   Mostly Cloudy
11:55 AM 57.2 °F - 44.6 °F 63% 29.86 in 85.0 mi South 5.8 mph - N/A   Mostly Cloudy
12:10 PM 59.0 °F - 44.6 °F 59% 29.85 in 25.0 mi SSW 4.6 mph - N/A Rain Light Rain Showers
12:41 PM 55.4 °F - 42.8 °F 63% 29.84 in 7.0 mi Calm Calm - N/A   Mostly Cloudy
12:55 PM 57.2 °F - 42.8 °F 59% 29.85 in 25.0 mi Calm Calm - N/A   Mostly Cloudy
1:22 PM 62.6 °F - 44.6 °F 52% 29.83 in 25.0 mi West 4.6 mph - N/A Rain Light Rain Showers
1:40 PM 60.8 °F - 46.4 °F 59% 29.82 in 25.0 mi WSW 6.9 mph - N/A   Mostly Cloudy
1:55 PM 62.6 °F - 42.8 °F 48% 29.83 in 25.0 mi West 10.4 mph - N/A   Mostly Cloudy
2:55 PM 62.6 °F - 41.0 °F 45% 29.82 in 25.0 mi SW 9.2 mph - N/A   Mostly Cloudy
3:29 PM 60.8 °F - 44.6 °F 55% 29.81 in 7.0 mi NNW 15.0 mph 20.7 mph N/A Rain Light Rain Showers
3:55 PM 57.2 °F - 46.4 °F 67% 29.82 in 25.0 mi NNE 9.2 mph - N/A Rain Light Rain Showers
4:55 PM 57.2 °F - 42.8 °F 59% 29.82 in 5.0 mi WSW 8.1 mph 20.7 mph N/A Rain Light Rain
5:55 PM 60.8 °F - 48.2 °F 63% 29.81 in 10.0 mi Variable 2.3 mph - N/A   Mostly Cloudy
6:55 PM 60.8 °F - 44.6 °F 55% 29.79 in 10.0 mi Variable 3.5 mph - N/A   Mostly Cloudy
7:55 PM 62.6 °F - 44.6 °F 52% 29.78 in 25.0 mi East 3.5 mph - N/A   Mostly Cloudy
8:55 PM 62.6 °F - 39.2 °F 42% 29.78 in 25.0 mi NNW 4.6 mph - N/A   Mostly Cloudy
9:55 PM 60.8 °F - 41.0 °F 48% 29.79 in 25.0 mi NNW 3.5 mph - N/A   Mostly Cloudy
10:56 PM 57.9 °F - 46.9 °F 67% 29.80 in 10.0 mi Calm Calm - N/A   Partly Cloudy
11:56 PM 53.1 °F - 46.9 °F 80% 29.81 in 10.0 mi Calm Calm - N/A   Scattered Clouds